• In Russia
  • List of Countries
  • For 7 days
  • Water Temperature
  • Satellite Maps
  • Weather Map
  • Weather Widgets
  • user-avatar
    Login

    Hourly Weather Bad Ischl

    Today, 24 February, Sunday

    Time Temperature Precipitation Wind Pressure Humidity
    00:00 -3°C° 0 mm 1 mps 728 mmHg 57%
    01:00 -2°C° 0 mm 1 mps 728 mmHg 56%
    02:00 -2°C° 0 mm 1 mps 728 mmHg 55%
    03:00 -2°C° 0 mm 1 mps 727 mmHg 55%
    04:00 -2°C° 0 mm 1 mps 727 mmHg 54%
    05:00 -2°C° 0 mm 1 mps 727 mmHg 54%
    06:00 -2°C° 0 mm 1 mps 727 mmHg 54%
    07:00 -2°C° 0 mm 1 mps 727 mmHg 54%
    08:00 +1°C° 0 mm 1 mps 727 mmHg 55%
    09:00 +3°C° 0 mm 1 mps 727 mmHg 56%
    10:00 +5°C° 0 mm 0 mps 727 mmHg 57%
    11:00 +6°C° 0 mm 0 mps 727 mmHg 58%
    12:00 +7°C° 0 mm 1 mps 727 mmHg 60%
    13:00 +8°C° 0 mm 1 mps 727 mmHg 61%
    14:00 +8°C° 0 mm 1 mps 726 mmHg 64%
    15:00 +7°C° 0 mm 1 mps 726 mmHg 67%
    16:00 +7°C° 0 mm 1 mps 726 mmHg 70%
    17:00 +6°C° 0 mm 1 mps 726 mmHg 70%
    18:00 +4°C° 0 mm 1 mps 727 mmHg 71%
    19:00 +1°C° 0 mm 0 mps 727 mmHg 71%
    20:00 +2°C° 0 mm 1 mps 727 mmHg 72%
    21:00 +2°C° 0 mm 1 mps 727 mmHg 73%
    22:00 +2°C° 0 mm 1 mps 727 mmHg 73%
    23:00 +2°C° 0 mm 1 mps 727 mmHg 75%

    Tomorrow, 25 February, Monday

    Time Temperature Precipitation Wind Pressure Humidity
    00:00 +2°C° 0 mm 1 mps 728 mmHg 76%
    01:00 +2°C° 0 mm 1 mps 728 mmHg 77%
    02:00 +2°C° 0 mm 1 mps 727 mmHg 78%
    03:00 +2°C° 0 mm 1 mps 727 mmHg 79%
    04:00 +2°C° 0 mm 1 mps 727 mmHg 79%
    05:00 +2°C° 0 mm 1 mps 727 mmHg 80%
    06:00 +2°C° 0 mm 1 mps 727 mmHg 81%
    07:00 +2°C° 0 mm 1 mps 727 mmHg 81%
    08:00 +4°C° 0 mm 1 mps 727 mmHg 80%
    09:00 +5°C° 0 mm 0 mps 727 mmHg 78%
    10:00 +7°C° 0 mm 0 mps 727 mmHg 77%
    11:00 +8°C° 0 mm 0 mps 727 mmHg 76%
    12:00 +9°C° 0 mm 0 mps 727 mmHg 75%
    13:00 +10°C° 0 mm 0 mps 727 mmHg 75%
    14:00 +9°C° 0 mm 0 mps 727 mmHg 78%
    15:00 +9°C° 0 mm 0 mps 726 mmHg 81%
    16:00 +9°C° 0 mm 0 mps 726 mmHg 83%
    17:00 +8°C° 0 mm 1 mps 726 mmHg 86%
    18:00 +7°C° 0 mm 1 mps 726 mmHg 88%
    19:00 +5°C° 0 mm 1 mps 726 mmHg 91%
    20:00 +5°C° 0 mm 1 mps 726 mmHg 90%
    21:00 +4°C° 0 mm 1 mps 726 mmHg 89%
    22:00 +4°C° 0 mm 1 mps 727 mmHg 89%
    23:00 +4°C° 0 mm 1 mps 727 mmHg 88%

    Day after tomorrow, 26 February, Tuesday

    Time Temperature Precipitation Wind Pressure Humidity
    00:00 +4°C° 0 mm 1 mps 727 mmHg 87%
    01:00 +3°C° 0 mm 1 mps 727 mmHg 87%
    02:00 +3°C° 0 mm 1 mps 726 mmHg 86%
    03:00 +3°C° 0 mm 1 mps 726 mmHg 85%
    04:00 +3°C° 0 mm 1 mps 726 mmHg 85%
    05:00 +3°C° 0 mm 1 mps 726 mmHg 83%
    06:00 +3°C° 0 mm 1 mps 725 mmHg 81%
    07:00 +3°C° 0 mm 1 mps 725 mmHg 80%
    08:00 +5°C° 0 mm 1 mps 725 mmHg 78%
    09:00 +7°C° 0 mm 1 mps 725 mmHg 76%
    10:00 +8°C° 0 mm 0 mps 725 mmHg 75%
    11:00 +10°C° 0 mm 1 mps 725 mmHg 73%
    12:00 +11°C° 0 mm 1 mps 724 mmHg 71%
    13:00 +12°C° 0 mm 1 mps 724 mmHg 69%
    14:00 +11°C° 0 mm 1 mps 724 mmHg 72%
    15:00 +11°C° 0 mm 1 mps 724 mmHg 75%
    16:00 +11°C° 0 mm 1 mps 724 mmHg 78%
    17:00 +9°C° 0 mm 1 mps 724 mmHg 79%
    18:00 +8°C° 0 mm 1 mps 724 mmHg 80%
    19:00 +6°C° 0 mm 1 mps 724 mmHg 81%
    20:00 +5°C° 0 mm 1 mps 724 mmHg 80%
    21:00 +5°C° 0 mm 1 mps 724 mmHg 79%
    22:00 +4°C° 0 mm 2 mps 724 mmHg 78%
    23:00 +4°C° 0 mm 2 mps 724 mmHg 76%

    27 February, Wednesday

    Time Temperature Precipitation Wind Pressure Humidity
    00:00 +3°C° 0 mm 2 mps 724 mmHg 74%
    01:00 +3°C° 0 mm 2 mps 724 mmHg 72%
    02:00 +3°C° 0 mm 2 mps 724 mmHg 70%
    03:00 +4°C° 0 mm 1 mps 723 mmHg 67%
    04:00 +4°C° 0 mm 1 mps 723 mmHg 65%
    05:00 +4°C° 0 mm 1 mps 723 mmHg 64%
    06:00 +4°C° 0 mm 1 mps 723 mmHg 63%
    07:00 +4°C° 0 mm 1 mps 723 mmHg 61%
    08:00 +6°C° 0 mm 1 mps 723 mmHg 63%
    09:00 +8°C° 0 mm 1 mps 722 mmHg 64%
    10:00 +10°C° 0 mm 1 mps 722 mmHg 65%
    11:00 +11°C° 0 mm 0 mps 722 mmHg 64%
    12:00 +12°C° 0 mm 0 mps 722 mmHg 62%
    13:00 +13°C° 0 mm 0 mps 721 mmHg 61%
    14:00 +13°C° 0 mm 0 mps 721 mmHg 64%
    15:00 +12°C° 0 mm 0 mps 720 mmHg 67%
    16:00 +12°C° 0 mm 0 mps 720 mmHg 70%
    17:00 +11°C° 0 mm 1 mps 720 mmHg 72%
    18:00 +10°C° 0 mm 1 mps 720 mmHg 74%
    19:00 +8°C° 0 mm 1 mps 720 mmHg 76%
    20:00 +6°C° 0 mm 2 mps 720 mmHg 74%
    21:00 +6°C° 0 mm 2 mps 720 mmHg 72%
    22:00 +6°C° 0 mm 2 mps 720 mmHg 71%
    23:00 +6°C° 0 mm 2 mps 720 mmHg 69%

    28 February, Thursday

    Time Temperature Precipitation Wind Pressure Humidity
    00:00 +6°C° 0 mm 2 mps 719 mmHg 68%
    01:00 +5°C° 0 mm 2 mps 719 mmHg 67%
    02:00 +5°C° 0 mm 2 mps 719 mmHg 66%
    03:00 +5°C° 0 mm 2 mps 719 mmHg 66%
    04:00 +5°C° 0 mm 2 mps 718 mmHg 66%
    05:00 +5°C° 0 mm 2 mps 718 mmHg 66%
    06:00 +5°C° 0 mm 2 mps 718 mmHg 66%
    07:00 +5°C° 0 mm 2 mps 718 mmHg 67%
    08:00 +8°C° 0 mm 1 mps 718 mmHg 67%
    09:00 +10°C° 0 mm 1 mps 718 mmHg 67%
    10:00 +12°C° 0 mm 1 mps 718 mmHg 67%
    11:00 +13°C° 0 mm 1 mps 717 mmHg 66%
    12:00 +14°C° 0 mm 1 mps 717 mmHg 64%
    13:00 +15°C° 0 mm 1 mps 717 mmHg 63%
    14:00 +15°C° 0 mm 1 mps 716 mmHg 65%
    15:00 +14°C° 0 mm 1 mps 716 mmHg 67%
    16:00 +14°C° 0 mm 1 mps 716 mmHg 69%
    17:00 +12°C° 0 mm 1 mps 716 mmHg 74%
    18:00 +10°C° 0 mm 1 mps 716 mmHg 78%
    19:00 +9°C° 0 mm 1 mps 716 mmHg 82%
    20:00 +8°C° 0 mm 1 mps 716 mmHg 83%
    21:00 +8°C° 0 mm 1 mps 716 mmHg 84%
    22:00 +6°C° 0 mm 2 mps 717 mmHg 84%
    23:00 +7°C° 0 mm 1 mps 717 mmHg 85%

    1 March, Friday

    Time Temperature Precipitation Wind Pressure Humidity
    00:00 +6°C° 0 mm 1 mps 716 mmHg 86%
    01:00 +6°C° 0 mm 1 mps 716 mmHg 86%
    02:00 +6°C° 0 mm 1 mps 716 mmHg 87%
    03:00 +6°C° 0 mm 1 mps 716 mmHg 88%
    04:00 +5°C° 0 mm 1 mps 716 mmHg 88%
    05:00 +5°C° 0 mm 1 mps 716 mmHg 88%
    06:00 +5°C° 0 mm 1 mps 716 mmHg 89%
    07:00 +5°C° 0 mm 1 mps 716 mmHg 89%
    08:00 +7°C° 0 mm 1 mps 716 mmHg 84%
    09:00 +9°C° 0 mm 1 mps 716 mmHg 79%
    10:00 +10°C° 0 mm 1 mps 716 mmHg 74%
    11:00 +11°C° 0 mm 1 mps 716 mmHg 73%
    12:00 +12°C° 0 mm 1 mps 716 mmHg 72%
    13:00 +12°C° 0 mm 1 mps 715 mmHg 71%
    14:00 +12°C° 0 mm 1 mps 715 mmHg 73%
    15:00 +12°C° 0 mm 1 mps 715 mmHg 75%
    16:00 +11°C° 0 mm 1 mps 714 mmHg 78%
    17:00 +10°C° 0 mm 1 mps 714 mmHg 82%
    18:00 +8°C° 0 mm 0 mps 715 mmHg 86%
    19:00 +7°C° 0 mm 0 mps 715 mmHg 90%
    20:00 +6°C° 0 mm 0 mps 715 mmHg 91%
    21:00 +6°C° 0 mm 0 mps 715 mmHg 92%
    22:00 +6°C° 0 mm 0 mps 716 mmHg 93%
    23:00 +6°C° 0.1 mm 0 mps 716 mmHg 93%
    Show more